Skip Page Navigation
NASA JPL Caltech
NASA Logo - Jet Propulsion Laboratory + View the NASA Portal
+ Center for Near-Earth Object Studies
JPL Home Earth Solar System Stars & Galaxies Technology
JPL Solar System Dynamics
BODIES ORBITS EPHEMERIDES TOOLS PHYSICAL DATA DISCOVERY FAQ SITE MAP
IMPORTANT: The SSD Announcement email list is now available. Major changes are coming in the near future, including possible hostname and/or URL changes. To be notified of such changes, subscribe to this email list.

Please visit this page for more details.


JPL Small-Body Database Browser
Search: [ help ]  
441593 (2008 UA157)
Classification: Main-belt Asteroid          SPK-ID: 2441593
Ephemeris | Orbit Diagram | Orbital Elements | Mission Design | Physical Parameters | Discovery Circumstances ]

[ show orbit diagram ]
Orbital Elements at Epoch 2458600.5 (2019-Apr-27.0) TDB
Reference: JPL 12 (heliocentric ecliptic J2000)
 Element Value Uncertainty (1-sigma)   Units 
e .1043861650806825 8.4512e-08  
a 2.576151721579396 3.5742e-08 au
q 2.307237122697725 2.2501e-07 au
i .9633894665195637 7.1373e-06 deg
node 82.25305069371714 0.0004804 deg
peri 298.95494969 0.00048161 deg
M 218.6109989993703 3.6359e-05 deg
tp 2459193.655699284099
(2020-Dec-10.15569928)
0.00016004 TDB
period 1510.27343167468
4.13
3.1431e-05
8.605e-08
d
yr
n .2383674323137704 4.9608e-09 deg/d
Q 2.845066320461068 3.9473e-08 au
  Orbit Determination Parameters
   # obs. used (total)      133  
   data-arc span      3897 days (10.67 yr)  
   first obs. used      2008-10-23  
   last obs. used      2019-06-25  
   planetary ephem.      DE431  
   SB-pert. ephem.      SB431-N16  
   condition code      0  
   norm. resid. RMS      .64845  
   source      ORB  
   producer      Otto Matic  
   solution date      2019-Sep-24 07:42:12  

Additional Information
 Earth MOID = 1.30928 au 
 Jupiter MOID = 2.59591 au 
 T_jup = 3.419 
[ show covariance matrix ]

Ephemeris | Orbit Diagram | Orbital Elements | Mission Design | Physical Parameters | Discovery Circumstances ]

Physical Parameter Table
Parameter Symbol Value Units Sigma Reference Notes
absolute magnitude H 17.4   n/a MPO437716  

441593 (2008 UA157)          Discovered 2008-Oct-23 by Mt. Lemmon Survey at Mount Lemmon
Reference: Last Updated: 2015-09-02
Ephemeris | Orbit Diagram | Orbital Elements | Mission Design | Physical Parameters | Discovery Circumstances ]
ABOUT SSD CREDITS/AWARDS PRIVACY/COPYRIGHT GLOSSARY LINKS
FirstGov
(server date/time)  
NASA Home Page
Site Manager:   Ryan S. Park
Webmaster  Alan B. Chamberlin